SCP
0 0 0 0 0 0 0 0 0 0 0 0 0 0 0 0 0 0 0 0 0 0 0 0 0 0 0 0 0 0 0 0 0 0 0 0 -0 -0 -0 -0 -0 0 0
0 0 0 -0 0 0 0 0 0 0 0 0 0 0 0 0 0 0 0 0 -0 -0 0 0 0 0 0 -0 0 0 0 0 0 0 0 0 -0 -0 -0 -0 -0 0 -0
0 0 0 0 0 0 0 0 0 0 0 0 0 0 0 0 0 0 0 0 0 -0 0 0 0 0 0 -0 0 0 0 0 0 0 0 -0 -0 -0 -0 -0 -0 -0 -0
0 0 0 0 0 0 0 0 0 0 0 0 0 0 0 0 0 0 0 0 0 0 0 0 0 0 0 0 0 0 0 0 0 0 -0 -0 -0 -0 -0 -0 -0 -0 -0
0 0 0 0 0 0 0 0 0 0 -0 0 0 0 0 0 0 0 0 0 0 0 0 0 0 0 0 0 0 0 -0 0 0 0 -0 -0 0 0 -0 -0 -0 -0 -0
0 0 0 0 0 0 0 0 0 0 0 0 0 0 0 0 0 0 0 0 0 0 0 0 0 0 0 0 0 0 0 0 -0 -0 -0 -0 -0 0 -0 -0 -0 -0 -0
0 0 0 0 0 -0 0 -0 0 0 0 0 0 -0 -0 -0 -0 -0 0 -0 0 0 0 0 0 0 0 -0 -0 -0 -0 -0 -0 -0 -0 -0 -0 -0 -0 -0 -0 -0 -0
0 0 0 0 0 0 -0 -0 -0 0 0 0 0 0 0 0 -0 -0 -0 -0 -0 -0 -0 -0 0 -0 -0 -0 -0 -0 -0 -0 -0 -0 -0 -0 -0 -0 -0 -0 -0 -0 0
0 0 0 0 0 0 0 0 0 0 0 0 0 0 0 0 0 -0 -0 -0 -0 -0 -0 -0 0 -0 -0 -0 -0 -0 -0 -0 -0 -0 -0 -0 -0 -0 -0 -0 -0 -0 -0
0 0 0 0 0 0 0 0 0 0 0 0 0 0 0 0 0 0 0 0 0 -0 -0 0 -0 0 -0 -0 -0 -0 -0 -0 -0 -0 -0 -0 -0 -0 -0 -0 -0 -0 -0
0 0 0 0 0 0 0 0 0 0 0 0 0 -0 -0 -0 -0 0 0 0 0 -0 -0 0 -0 0 0 -0 -0 -0 -0 -0 -0 -0 -0 -0 -0 -0 -0 -0 -0 -0 -0
0 0 0 0 0 0 0 0 0 0 0 0 0 -0 0 0 0 0 0 0 0 0 0 0 0 0 0 0 -0 -0 -0 -0 -0 -0 -0 -0 -0 -0 -0 -0 -0 -0 -0
0 0 0 0 0 0 0 0 0 0 0 0 -0 0 0 0 0 -0 -0 -0 -0 -0 0 0 0 0 0 0 0 0 0 0 0 0 -0 -0 -0 -0 -0 -0 -0 -0 -0
0 0 0 0 0 0 0 0 0 0 0 0 0 0 0 0 0 0 0 0 -0 -0 0 0 0 0 0 0 0 0 0 0 0 0 0 -0 0 0 0 0 0 0 0
0 0 0 0 0 0 0 0 0 0 0 0 0 0 0 0 0 0 0 0 0 0 0 0 0 0 0 0 0 0 0 0 0 0 0 0 0 0 0 0 0 0 0
0 0 0 0 0 0 0 0 0 0 0 0 0 0 0 0 0 0 0 0 0 0 0 0 0 0 0 0 0 0 0 0 0 0 0 0 0 0 0 0 0 0 0
0 0 0 0 0 0 0 0 0 0 0 0 0 0 0 0 0 0 0 1 1 0 0 0 0 0 0 0 0 0 0 0 0 0 0 0 0 0 0 0 0 0 0
0 0 0 0 0 0 0 0 0 0 0 0 0 0 0 0 0 0 1 0 0 0 0 0 0 0 0 0 0 0 0 0 0 0 0 0 0 0 0 0 0 0 0
0 0 0 0 0 0 0 0 0 0 0 0 0 0 0 0 0 0 0 0 0 0 1 0 0 0 0 0 0 0 0 0 1 0 0 0 0 0 0 0 0 0 0
0 0 0 0 0 0 0 0 0 0 0 0 0 0 0 0 0 -0 0 0 0 0 0 0 0 0 0 0 1 0 0 0 0 0 0 0 0 0 0 0 0 0 0
0 0 0 0 0 0 0 0 0 0 0 0 0 0 0 0 0 0 0 0 1 0 0 0 0 0 0 0 0 0 0 0 1 1 1 1 1 1 1 0 0 0 0
0 0 0 0 0 0 0 0 0 1 0 0 0 0 0 0 -0 -0 0 0 0 1 1 1 0 0 0 1 0 1 1 0 0 1 1 1 1 1 1 1 1 0 0
0 0 -0 -0 -0 -0 0 0 0 0 0 0 0 0 0 0 0 0 0 0 0 0 0 0 0 0 -0 0 1 0 0 0 0 0 1 0 0 1 0 1 0 0 0
0 0 -0 -0 -0 -0 0 0 0 0 0 0 0 0 0 0 0 0 0 1 0 0 0 0 0 0 0 0 0 0 0 0 0 0 0 0 0 0 0 1 0 0 0
0 0 0 0 0 0 0 0 0 0 0 0 0 0 0 0 0 0 0 0 0 0 0 0 0 0 0 0 0 0 0 0 0 0 0 0 0 0 0 0 0 0 0
0 0 0 0 0 0 0 0 0 1 0 0 0 0 0 0 0 0 0 0 0 0 0 0 0 0 0 0 0 0 0 0 0 0 0 0 0 0 0 0 0 0 0
Wind_Speed_500mb
24 22 19 16 12 8 11 23 15 13 13 9 5 5 4 1 1 6 8 11 10 9 11 11 10 8 7 6 7 7 9 11 11 11 12 12 13 11 11 11 10 10 8
25 21 21 15 12 5 7 20 19 21 13 9 4 1 1 1 0 5 8 8 11 11 10 9 9 8 5 6 7 9 10 11 13 13 10 7 7 8 11 13 13 12 13
24 22 20 15 8 9 6 5 5 7 6 10 5 7 3 1 2 4 6 6 8 11 11 9 6 5 3 4 5 7 11 10 10 8 4 3 7 10 10 11 11 8 8
24 22 20 13 8 8 4 8 4 8 11 7 7 2 1 2 3 2 3 4 9 10 9 8 5 3 1 1 3 4 9 8 6 4 3 6 8 10 9 8 6 5 5
26 22 19 12 7 7 6 9 7 9 6 6 3 6 6 4 3 5 5 7 9 9 11 7 5 5 4 5 4 3 5 5 7 6 8 8 8 8 9 6 3 3 3
28 20 16 13 10 9 7 10 10 8 9 2 2 6 8 2 3 4 4 8 10 12 11 10 7 5 5 6 7 5 4 5 7 5 6 6 9 9 8 6 3 4 4
31 23 18 14 10 11 4 2 3 9 1 3 4 9 5 4 6 4 7 6 10 13 11 14 14 12 11 8 8 6 5 7 8 7 7 7 8 9 8 7 6 5 5
37 27 22 18 13 10 3 2 4 6 4 9 9 12 6 4 9 1 2 6 6 10 10 16 17 16 15 17 13 9 7 7 7 9 9 7 8 8 8 8 7 6 6
42 34 31 25 19 17 10 8 3 1 5 6 5 4 5 5 8 8 2 7 12 13 13 14 16 17 16 16 17 13 10 11 11 10 10 10 8 8 8 8 9 8 7
45 38 33 32 24 20 14 13 7 4 3 3 3 2 2 3 4 6 8 8 15 18 14 8 15 21 23 21 17 19 16 14 12 11 10 10 10 10 10 11 11 11 11
52 44 40 37 33 25 21 17 13 9 8 7 9 7 6 6 4 6 9 14 18 19 17 15 12 13 20 19 22 18 19 20 18 15 15 14 13 13 12 13 14 14 14
59 53 47 41 38 32 26 22 20 17 15 12 11 11 9 4 6 6 11 17 20 19 21 19 18 17 16 22 22 22 20 24 23 24 22 21 19 18 18 17 17 18 19
60 59 50 48 44 39 34 30 26 26 26 26 23 21 22 20 21 21 20 19 20 21 24 19 16 19 22 19 17 19 30 26 24 25 25 26 26 25 24 23 23 22 23
49 50 46 48 44 45 44 42 40 39 36 34 34 36 33 28 31 28 21 19 21 19 19 17 19 18 18 17 16 18 23 28 27 28 29 30 31 32 32 33 31 31 29
49 44 42 40 39 40 41 42 42 39 40 41 39 37 37 31 33 30 27 25 19 22 21 18 15 18 19 18 20 21 19 22 25 29 34 37 37 38 37 41 41 38 38
53 51 47 44 42 41 39 38 39 38 37 33 31 31 28 32 36 37 36 31 30 28 28 23 24 28 30 29 29 27 26 27 27 28 27 34 41 45 44 42 47 48 47
53 54 50 45 45 44 42 40 37 34 34 32 31 31 31 31 32 33 36 37 37 32 27 29 31 35 34 32 33 36 33 34 38 39 38 41 45 46 51 50 49 52 53
57 54 49 44 43 43 43 42 37 35 33 35 34 37 36 34 33 33 34 36 36 37 35 35 34 36 38 36 36 34 39 42 47 50 48 50 48 49 49 50 52 53 55
59 55 52 46 44 43 43 43 40 35 35 39 41 43 41 39 39 39 38 38 37 37 38 34 37 35 41 41 43 46 49 48 48 49 48 49 48 47 48 53 55 54 56
61 60 59 53 48 46 46 45 44 39 38 37 39 40 42 43 42 42 41 42 39 39 43 40 39 39 39 39 44 48 43 39 42 41 48 51 51 54 58 58 59 60 61
63 63 62 58 53 49 47 44 42 39 37 39 41 43 45 45 44 43 43 44 45 45 40 41 45 45 44 40 40 41 44 45 46 53 56 47 48 56 55 53 60 64 66
60 62 64 61 57 55 53 46 43 42 39 40 44 45 49 49 48 46 45 47 48 49 52 52 55 49 49 51 48 48 45 45 45 35 44 37 43 53 55 58 57 56 61
65 65 63 65 64 59 53 47 47 45 43 35 47 45 48 49 48 47 46 47 53 52 49 50 60 62 66 54 51 56 56 56 57 53 55 55 44 52 49 53 62 63 68
65 66 65 64 62 58 55 48 47 47 44 37 35 50 49 55 54 54 49 47 50 52 51 52 53 53 52 55 59 62 65 70 72 69 60 64 64 56 47 44 52 50 55
61 62 60 58 56 52 47 46 47 49 50 51 51 49 52 53 54 52 52 48 50 48 43 41 41 45 48 54 60 63 63 58 56 48 45 49 49 47 42 44 51 54 53
60 58 57 57 56 52 44 42 46 53 54 49 50 49 47 46 45 45 39 36 34 34 31 33 35 38 39 41 46 49 47 41 35 34 19 29 24 23 25 42 26 35 55
Wind_Direction_500mb
191 188 182 178 176 107 85 105 88 91 134 113 99 147 170 269 230 169 184 185 183 187 186 178 189 204 220 224 247 267 280 282 285 286 288 300 300 303 315 313 302 285 267
195 196 188 200 157 152 133 120 95 81 93 85 57 320 272 50 7 174 164 180 181 184 191 193 200 202 228 258 272 279 285 292 293 293 290 288 295 318 317 318 299 270 246
195 198 200 202 212 209 214 181 125 111 92 64 131 97 94 293 240 210 189 182 205 205 193 184 200 202 203 267 280 303 296 287 281 284 270 259 305 312 313 313 298 266 243
200 208 204 208 213 213 215 211 138 133 103 76 97 157 304 358 232 184 205 218 231 222 210 202 208 238 250 295 254 243 274 283 285 274 257 277 298 301 307 311 302 252 253
199 199 198 214 214 197 177 202 231 221 169 99 132 320 294 276 285 242 220 234 236 231 225 214 218 235 270 296 290 284 259 248 255 263 282 294 293 293 299 311 306 228 211
199 195 202 223 205 227 215 201 231 191 159 148 212 341 273 232 302 238 237 247 240 239 239 227 238 267 274 277 283 286 286 265 244 247 264 294 297 288 290 287 250 216 232
206 215 215 215 225 255 247 179 220 165 146 52 43 338 192 212 332 295 250 297 236 243 257 261 252 248 264 272 284 294 301 299 278 256 267 280 271 283 279 263 259 250 249
211 214 220 216 209 220 260 308 115 99 117 21 28 58 68 28 345 10 165 18 322 299 285 266 264 263 256 254 258 270 273 270 267 278 277 271 276 276 277 265 247 252 260
215 221 224 224 220 228 247 234 268 11 53 15 22 52 21 17 357 21 10 318 330 327 308 279 262 261 253 260 256 260 260 271 270 260 260 263 260 270 277 275 271 259 249
218 223 225 223 227 229 227 245 266 281 309 344 338 29 4 332 354 339 357 1 1 2 359 306 275 265 261 257 261 253 249 247 252 263 263 267 268 264 266 269 264 262 263
221 226 225 222 222 230 230 230 247 265 279 280 295 317 349 2 336 343 342 338 344 347 347 329 325 313 261 263 256 256 245 250 249 250 258 255 261 264 262 261 264 264 262
218 227 224 222 219 224 229 234 242 246 262 268 285 288 289 301 317 320 314 316 321 325 332 329 331 326 320 266 262 250 246 247 256 253 254 259 262 265 270 269 264 264 263
222 221 224 221 225 227 231 238 243 250 254 262 269 275 282 281 285 291 291 296 304 306 314 331 327 332 328 285 271 268 249 251 254 256 259 262 266 267 269 271 272 270 269
216 217 220 220 228 235 235 243 251 251 254 257 266 272 275 274 278 281 273 274 289 296 302 294 307 325 331 318 267 283 281 253 261 260 260 263 266 268 269 268 268 267 267
215 217 215 219 228 235 240 245 252 256 253 259 267 271 273 270 273 274 272 266 265 282 291 298 299 293 298 310 303 300 307 259 268 268 261 262 266 267 268 267 265 265 265
215 215 216 228 234 236 240 244 249 254 255 257 263 272 272 276 275 272 269 266 266 268 275 281 291 289 282 286 285 284 281 274 268 278 280 277 272 264 264 266 264 261 262
213 217 221 228 231 233 237 241 247 254 259 258 260 261 267 276 274 272 274 268 264 265 268 280 285 291 288 286 283 277 269 270 272 271 275 276 275 271 265 267 269 265 263
210 215 222 226 227 231 235 242 246 251 256 262 267 268 267 270 273 271 273 271 264 265 271 276 278 287 293 287 280 277 271 276 276 275 275 276 277 270 266 266 266 266 264
210 212 215 218 222 228 235 237 241 252 259 268 270 274 268 270 272 270 268 268 268 267 273 273 278 283 288 288 289 285 280 280 278 277 274 273 273 273 269 266 266 268 266
214 214 216 220 223 227 234 239 245 251 265 270 271 267 264 267 276 277 266 267 270 271 276 278 278 281 282 284 285 287 284 282 283 276 277 276 275 273 270 270 267 267 266
220 222 224 225 224 227 230 232 237 251 265 267 268 268 265 267 272 272 267 267 271 272 270 273 275 277 277 281 283 286 281 286 282 283 281 278 278 279 277 273 267 267 268
224 225 227 228 227 229 233 235 241 248 255 262 264 264 266 268 268 266 262 262 266 270 273 274 275 276 279 287 287 284 283 284 284 283 287 284 283 281 280 275 271 269 272
226 227 229 232 233 234 237 239 241 243 245 260 270 267 263 265 267 266 265 262 262 264 269 273 272 275 281 286 284 287 286 284 283 282 279 284 283 284 285 281 280 275 268
233 233 235 239 243 244 245 242 239 236 242 251 245 253 259 259 260 265 264 264 266 266 268 270 272 275 279 284 287 287 287 287 287 288 288 288 289 285 284 284 288 276 271
237 236 236 238 240 239 239 237 235 235 241 243 251 254 253 259 261 262 263 260 266 266 266 266 267 275 283 287 287 288 287 286 287 286 290 282 291 292 286 295 294 292 283
241 238 236 235 236 240 239 235 234 238 246 249 253 257 261 268 266 265 261 246 249 258 264 272 278 284 287 292 295 293 292 292 292 300 284 281 291 307 306 303 289 297 297
Wind_Speed_850mb
24 22 19 16 12 8 11 23 15 13 13 9 5 5 4 1 1 6 8 11 10 9 11 11 10 8 7 6 7 7 9 11 11 11 12 12 13 11 11 11 10 10 8
25 21 21 15 12 5 7 20 19 21 13 9 4 1 1 1 0 5 8 8 11 11 10 9 9 8 5 6 7 9 10 11 13 13 10 7 7 8 11 13 13 12 13
24 22 20 15 8 9 6 5 5 7 6 10 5 7 3 1 2 4 6 6 8 11 11 9 6 5 3 4 5 7 11 10 10 8 4 3 7 10 10 11 11 8 8
24 22 20 13 8 8 4 8 4 8 11 7 7 2 1 2 3 2 3 4 9 10 9 8 5 3 1 1 3 4 9 8 6 4 3 6 8 10 9 8 6 5 5
26 22 19 12 7 7 6 9 7 9 6 6 3 6 6 4 3 5 5 7 9 9 11 7 5 5 4 5 4 3 5 5 7 6 8 8 8 8 9 6 3 3 3
28 20 16 13 10 9 7 10 10 8 9 2 2 6 8 2 3 4 4 8 10 12 11 10 7 5 5 6 7 5 4 5 7 5 6 6 9 9 8 6 3 4 4
31 23 18 14 10 11 4 2 3 9 1 3 4 9 5 4 6 4 7 6 10 13 11 14 14 12 11 8 8 6 5 7 8 7 7 7 8 9 8 7 6 5 5
37 27 22 18 13 10 3 2 4 6 4 9 9 12 6 4 9 1 2 6 6 10 10 16 17 16 15 17 13 9 7 7 7 9 9 7 8 8 8 8 7 6 6
42 34 31 25 19 17 10 8 3 1 5 6 5 4 5 5 8 8 2 7 12 13 13 14 16 17 16 16 17 13 10 11 11 10 10 10 8 8 8 8 9 8 7
45 38 33 32 24 20 14 13 7 4 3 3 3 2 2 3 4 6 8 8 15 18 14 8 15 21 23 21 17 19 16 14 12 11 10 10 10 10 10 11 11 11 11
52 44 40 37 33 25 21 17 13 9 8 7 9 7 6 6 4 6 9 14 18 19 17 15 12 13 20 19 22 18 19 20 18 15 15 14 13 13 12 13 14 14 14
59 53 47 41 38 32 26 22 20 17 15 12 11 11 9 4 6 6 11 17 20 19 21 19 18 17 16 22 22 22 20 24 23 24 22 21 19 18 18 17 17 18 19
60 59 50 48 44 39 34 30 26 26 26 26 23 21 22 20 21 21 20 19 20 21 24 19 16 19 22 19 17 19 30 26 24 25 25 26 26 25 24 23 23 22 23
49 50 46 48 44 45 44 42 40 39 36 34 34 36 33 28 31 28 21 19 21 19 19 17 19 18 18 17 16 18 23 28 27 28 29 30 31 32 32 33 31 31 29
49 44 42 40 39 40 41 42 42 39 40 41 39 37 37 31 33 30 27 25 19 22 21 18 15 18 19 18 20 21 19 22 25 29 34 37 37 38 37 41 41 38 38
53 51 47 44 42 41 39 38 39 38 37 33 31 31 28 32 36 37 36 31 30 28 28 23 24 28 30 29 29 27 26 27 27 28 27 34 41 45 44 42 47 48 47
53 54 50 45 45 44 42 40 37 34 34 32 31 31 31 31 32 33 36 37 37 32 27 29 31 35 34 32 33 36 33 34 38 39 38 41 45 46 51 50 49 52 53
57 54 49 44 43 43 43 42 37 35 33 35 34 37 36 34 33 33 34 36 36 37 35 35 34 36 38 36 36 34 39 42 47 50 48 50 48 49 49 50 52 53 55
59 55 52 46 44 43 43 43 40 35 35 39 41 43 41 39 39 39 38 38 37 37 38 34 37 35 41 41 43 46 49 48 48 49 48 49 48 47 48 53 55 54 56
61 60 59 53 48 46 46 45 44 39 38 37 39 40 42 43 42 42 41 42 39 39 43 40 39 39 39 39 44 48 43 39 42 41 48 51 51 54 58 58 59 60 61
63 63 62 58 53 49 47 44 42 39 37 39 41 43 45 45 44 43 43 44 45 45 40 41 45 45 44 40 40 41 44 45 46 53 56 47 48 56 55 53 60 64 66
60 62 64 61 57 55 53 46 43 42 39 40 44 45 49 49 48 46 45 47 48 49 52 52 55 49 49 51 48 48 45 45 45 35 44 37 43 53 55 58 57 56 61
65 65 63 65 64 59 53 47 47 45 43 35 47 45 48 49 48 47 46 47 53 52 49 50 60 62 66 54 51 56 56 56 57 53 55 55 44 52 49 53 62 63 68
65 66 65 64 62 58 55 48 47 47 44 37 35 50 49 55 54 54 49 47 50 52 51 52 53 53 52 55 59 62 65 70 72 69 60 64 64 56 47 44 52 50 55
61 62 60 58 56 52 47 46 47 49 50 51 51 49 52 53 54 52 52 48 50 48 43 41 41 45 48 54 60 63 63 58 56 48 45 49 49 47 42 44 51 54 53
60 58 57 57 56 52 44 42 46 53 54 49 50 49 47 46 45 45 39 36 34 34 31 33 35 38 39 41 46 49 47 41 35 34 19 29 24 23 25 42 26 35 55
Wind_Direction_850mb
191 188 182 178 176 107 85 105 88 91 134 113 99 147 170 269 230 169 184 185 183 187 186 178 189 204 220 224 247 267 280 282 285 286 288 300 300 303 315 313 302 285 267
195 196 188 200 157 152 133 120 95 81 93 85 57 320 272 50 7 174 164 180 181 184 191 193 200 202 228 258 272 279 285 292 293 293 290 288 295 318 317 318 299 270 246
195 198 200 202 212 209 214 181 125 111 92 64 131 97 94 293 240 210 189 182 205 205 193 184 200 202 203 267 280 303 296 287 281 284 270 259 305 312 313 313 298 266 243
200 208 204 208 213 213 215 211 138 133 103 76 97 157 304 358 232 184 205 218 231 222 210 202 208 238 250 295 254 243 274 283 285 274 257 277 298 301 307 311 302 252 253
199 199 198 214 214 197 177 202 231 221 169 99 132 320 294 276 285 242 220 234 236 231 225 214 218 235 270 296 290 284 259 248 255 263 282 294 293 293 299 311 306 228 211
199 195 202 223 205 227 215 201 231 191 159 148 212 341 273 232 302 238 237 247 240 239 239 227 238 267 274 277 283 286 286 265 244 247 264 294 297 288 290 287 250 216 232
206 215 215 215 225 255 247 179 220 165 146 52 43 338 192 212 332 295 250 297 236 243 257 261 252 248 264 272 284 294 301 299 278 256 267 280 271 283 279 263 259 250 249
211 214 220 216 209 220 260 308 115 99 117 21 28 58 68 28 345 10 165 18 322 299 285 266 264 263 256 254 258 270 273 270 267 278 277 271 276 276 277 265 247 252 260
215 221 224 224 220 228 247 234 268 11 53 15 22 52 21 17 357 21 10 318 330 327 308 279 262 261 253 260 256 260 260 271 270 260 260 263 260 270 277 275 271 259 249
218 223 225 223 227 229 227 245 266 281 309 344 338 29 4 332 354 339 357 1 1 2 359 306 275 265 261 257 261 253 249 247 252 263 263 267 268 264 266 269 264 262 263
221 226 225 222 222 230 230 230 247 265 279 280 295 317 349 2 336 343 342 338 344 347 347 329 325 313 261 263 256 256 245 250 249 250 258 255 261 264 262 261 264 264 262
218 227 224 222 219 224 229 234 242 246 262 268 285 288 289 301 317 320 314 316 321 325 332 329 331 326 320 266 262 250 246 247 256 253 254 259 262 265 270 269 264 264 263
222 221 224 221 225 227 231 238 243 250 254 262 269 275 282 281 285 291 291 296 304 306 314 331 327 332 328 285 271 268 249 251 254 256 259 262 266 267 269 271 272 270 269
216 217 220 220 228 235 235 243 251 251 254 257 266 272 275 274 278 281 273 274 289 296 302 294 307 325 331 318 267 283 281 253 261 260 260 263 266 268 269 268 268 267 267
215 217 215 219 228 235 240 245 252 256 253 259 267 271 273 270 273 274 272 266 265 282 291 298 299 293 298 310 303 300 307 259 268 268 261 262 266 267 268 267 265 265 265
215 215 216 228 234 236 240 244 249 254 255 257 263 272 272 276 275 272 269 266 266 268 275 281 291 289 282 286 285 284 281 274 268 278 280 277 272 264 264 266 264 261 262
213 217 221 228 231 233 237 241 247 254 259 258 260 261 267 276 274 272 274 268 264 265 268 280 285 291 288 286 283 277 269 270 272 271 275 276 275 271 265 267 269 265 263
210 215 222 226 227 231 235 242 246 251 256 262 267 268 267 270 273 271 273 271 264 265 271 276 278 287 293 287 280 277 271 276 276 275 275 276 277 270 266 266 266 266 264
210 212 215 218 222 228 235 237 241 252 259 268 270 274 268 270 272 270 268 268 268 267 273 273 278 283 288 288 289 285 280 280 278 277 274 273 273 273 269 266 266 268 266
214 214 216 220 223 227 234 239 245 251 265 270 271 267 264 267 276 277 266 267 270 271 276 278 278 281 282 284 285 287 284 282 283 276 277 276 275 273 270 270 267 267 266
220 222 224 225 224 227 230 232 237 251 265 267 268 268 265 267 272 272 267 267 271 272 270 273 275 277 277 281 283 286 281 286 282 283 281 278 278 279 277 273 267 267 268
224 225 227 228 227 229 233 235 241 248 255 262 264 264 266 268 268 266 262 262 266 270 273 274 275 276 279 287 287 284 283 284 284 283 287 284 283 281 280 275 271 269 272
226 227 229 232 233 234 237 239 241 243 245 260 270 267 263 265 267 266 265 262 262 264 269 273 272 275 281 286 284 287 286 284 283 282 279 284 283 284 285 281 280 275 268
233 233 235 239 243 244 245 242 239 236 242 251 245 253 259 259 260 265 264 264 266 266 268 270 272 275 279 284 287 287 287 287 287 288 288 288 289 285 284 284 288 276 271
237 236 236 238 240 239 239 237 235 235 241 243 251 254 253 259 261 262 263 260 266 266 266 266 267 275 283 287 287 288 287 286 287 286 290 282 291 292 286 295 294 292 283
241 238 236 235 236 240 239 235 234 238 246 249 253 257 261 268 266 265 261 246 249 258 264 272 278 284 287 292 295 293 292 292 292 300 284 281 291 307 306 303 289 297 297